Location: Castle Hill Houses
(40.8186°N, 73.8497°W)
Time: 10:32:55
(UTC+00:00)

Cosmos 1844 Rocket - Pass Details

Date: 26 January 2020
Orbit: 824 x 845 km, 71.0° (Epoch: 16 February)

Event Time Altitude Azimuth Distance (km) Brightness Sun altitude
Rises 11:07:42 0° 338° (NNW) 3,393 5.5 -12.2°
Reaches altitude 10° 11:10:10 10° 341° (NNW) 2,458 4.8 -11.7°
Maximum altitude 11:15:48 69° 65° (ENE) 900 3.0 -10.7°
Drops below altitude 10° 11:21:25 10° 148° (SSE) 2,455 5.9 -9.7°
Sets 11:23:52 0° 151° (SSE) 3,388 6.6 -9.2°
